STARLINK-32105, 59689

Orbit data source: Space-Track

STARLINK-32105, 59689 is a payload satellite owned by SpaceX/Seattle (US) in LEO that was launched on Wed, 08 May 2024 UTC via an FALCON 9 launch vehicle from the Air Force Eastern Test Range (AFETR). Payload-class satellites include a variety of spacecraft equipped with specific instruments for various scientific and technological missions. These include communications satellites like Starlink; space stations such as the ISS; scientific satellites like the Hubble; Earth observation satellites from companies like Planet Labs, Umbra, and HawkEye 360; GPS; miniature CubeSats for education and research; and military/defense satellites.

Loading next visibility...
Identifier
59689, 2024-086H
Orbit
LEO
Country
Flag of USUS
Related business
Manufacturer
SpaceX/Seattle
Mission
Operational Commercial Communications
Bus & Motor
STARLINK V2M, Unknown motor
Mass
730 kg wet, ~700 kg dry
Launch date (UTC)
2024-05-08 (2 years ago)
Launch vehicle
FALCON 9
Launch site
Air Force Eastern Test Range (AFETR)
Object type
Payload
Rocket body
Debris
Shape & HBR
Box + 2 Pan, 17.7 m
Radar Cross Section
33.884 m², Large (>1 m²)

Expand to show TLE details & history
Last TLE update: 2 days ago

TLE from 2 days ago
0 STARLINK-32105
1 59689U 24086H   26171.13958078  .00000424  00000-0  24925-4 0  9991
2 59689  43.0025 201.0514 0001670 275.3475  84.7186 15.27577716119781
Epoch: 2026-06-20T03:20Z
TLE epoch observation values (Epoch: 2026-06-20T03:20:59.779Z)
Latitude
-0.00002°
Longitude
-117.55619°
Altitude
482.726 km
Speed
7.626 km/s
True Right ascension
13h 24m 12s
True Declination
0° 00' 00"
Sunlit
Object was in daylight at epoch
Visualization orbit readout
Latitude
Unknown
Longitude
Unknown
Altitude
Unknown
Speed
Unknown
Apparent Right ascension
Unknown
Apparent Declination
Unknown
Sunlit
N/A
Visualization observer readout
Local Sidereal Time
21:32:56
Azimuth
Unknown
Elevation
Unknown
Doppler factor
Unknown
Orbital elements
Apogee altitude
486.147 km
Perigee altitude
483.855 km
Semi-major axis
6,863.138 km
Eccentricity
0.00017
Inclination
43.0025°
RAAN
201.0514°
Arg. of periapsis
275.3475°
True anomaly
84.73766°
Mean anomaly
84.7186°
Eccentric anomaly
84.72813°
Mean motion
3.81732 °/min
Orbital period
94.31 mins
BSTAR
0.000024925
Loading maneuver chart data...
Computing Atmospheric mass density...
Loading historical data...
Loading historical data...
Loading historical data...
Loading historical data...
Loading historical data...
Loading historical data...
Loading historical data...

Documentation

Showing up to 5 results
|